Location: Isle of Man Observatory
(54.1776°N, 4.6264°W)
Time: 15:13:42
(UTC+02:00)

ARIANE 6 FM1 Upper Stage - Pass Details

Date: 19 April 2026
Orbit: 526 x 601 km, 62.0° (Epoch: 19 May)

Event Time Altitude Azimuth Distance (km) Brightness Sun altitude
Rises 01:11:27 0° 304° (NW) 2,689 6.9 -23.2°
Reaches altitude 10° 01:13:47 10° 312° (NW) 1,789 6.0 -23.3°
Maximum altitude 01:17:34 39° 22° (NNE) 808 3.8 -23.5°
Enters shadow 01:18:51 30° 65° (ENE) 972 3.9 -23.5°
